Location: Eitze
(52.9840°N, 9.6894°E)
Time: 16:02:52
(UTC+00:00)

Iridium 4 Rocket - Pass Details

Date: 19 May 2025
Orbit: 582 x 886 km, 86.9° (Epoch: 16 June)

Event Time Altitude Azimuth Distance (km) Brightness Sun altitude
Rises 19:57:42 0° 355° (N) 3,123 7.5 -5.2°
Reaches altitude 10° 19:59:55 10° 356° (N) 2,245 6.7 -5.5°
Maximum altitude 20:04:58 88° 272° (W) 788 3.6 -6.0°
Drops below altitude 10° 20:10:26 10° 179° (S) 2,422 5.7 -6.6°
Sets 20:12:54 0° 179° (S) 3,388 6.4 -6.8°
